This demonstration page uses our WeatherBlox Daily Observations layout. Learn more.

Left ArrowRight Arrow

40.92945, -100.16068

Hourly Observations for April 30, 2016

Temp ( °F °C ) Dew Point ( °F °C ) Humidity (%) Winds ( mph kmh ) Pressure ( in mb ) Visibility ( mi km ) Precip ( " mm )
12:15 am 00:15 Cloudy with Rain 41 5 39 3.8 92 92 NE 5 7 29.94 1014 5 8 0.03 0.76
12:35 am 00:35 Cloudy with Light Rain 41 5 39 3.7 91 91 NE 5 7 29.94 1014 3 4 0.09 2.29
12:55 am 00:55 Cloudy with Rain 41 4.8 38 3.6 92 92 NE 9 15 29.91 1013 5 8 0.14 3.56
1:15 am 01:15 Cloudy with Rain 41 4.8 38 3.5 91 91 ENE 9 15 29.91 1013 7 11 0.05 1.27
1:35 am 01:35 Cloudy with Light Rain 40 4.7 38 3.1 90 90 NE 9 15 29.88 1012 7 11 0.09 2.29
1:55 am 01:55 Cloudy with Light Rain 40 4.7 38 3.3 91 91 NE 15 24 29.88 1012 7 11 0.12 3.05
2:15 am 02:15 Cloudy with Rain 40 4.3 37 2.7 89 89 ENE 14 22 29.88 1012 7 11 0.05 1.27
2:35 am 02:35 Cloudy with Rain 40 4.2 37 2.5 89 89 ENE 13 20 29.88 1012 7 11 0.09 2.29
2:55 am 02:55 Cloudy with Light Rain 39 4 37 2.5 90 90 NE 9 15 29.88 1012 10 16 0.11 2.79
3:15 am 03:15 Cloudy with Light Rain 39 4 37 2.5 90 90 NE 10 17 29.85 1011 7 11 0.03 0.76
3:35 am 03:35 Cloudy with Light Rain 39 4 37 2.5 90 90 NE 12 19 29.85 1011 10 16 0.05 1.27
3:55 am 03:55 Cloudy with Light Rain 39 3.7 35 1.9 88 88 NE 14 22 29.85 1011 10 16 0.08 2.03
4:15 am 04:15 Cloudy with Light Rain 38 3.2 35 1.6 89 89 NNE 13 20 29.83 1010 10 16 N/A
4:35 am 04:35 Cloudy with Drizzle 38 3.2 35 1.8 91 91 NNE 12 19 29.85 1011 10 16 0.01 0.25
4:55 am 04:55 Cloudy with Drizzle 37 3 35 1.5 90 90 NNE 10 17 29.85 1011 10 16 0.01 0.25
5:15 am 05:15 Cloudy 37 2.7 34 1.3 91 91 NNE 10 17 29.83 1010 10 16 N/A
5:35 am 05:35 Cloudy 37 2.5 34 1.2 91 91 N 10 17 29.83 1010 10 16 N/A
5:55 am 05:55 Cloudy 37 2.6 35 1.5 93 93 N 8 13 29.83 1010 10 16 N/A
6:15 am 06:15 Cloudy 37 3 35 1.6 91 91 N 12 19 29.83 1010 10 16 N/A
6:35 am 06:35 Cloudy with Mist and Fog 37 2.7 35 1.5 92 92 N 10 17 29.83 1010 5 8 N/A
6:55 am 06:55 Cloudy with Drizzle 37 2.5 35 1.5 93 93 NNW 10 17 29.83 1010 4 6 N/A
7:15 am 07:15 Cloudy with Rain 37 2.5 35 1.5 93 93 N 9 15 29.83 1010 3 5 N/A
7:35 am 07:35 Cloudy with Light Rain 37 2.7 35 1.7 93 93 NNW 10 17 29.83 1010 3 4 0.02 0.51
7:55 am 07:55 Cloudy with Light Rain 37 2.8 35 1.8 93 93 NNW 10 17 29.83 1010 3 5 0.02 0.51
8:15 am 08:15 Cloudy with Drizzle 37 3 36 2.1 94 94 NNW 12 19 29.83 1010 4 6 0.01 0.25
8:35 am 08:35 Cloudy 38 3.2 36 2.2 93 93 N 10 17 29.83 1010 7 11 0.01 0.25
8:55 am 08:55 Cloudy with Drizzle 38 3.6 37 2.5 93 93 N 10 17 29.83 1010 4 6 0.01 0.25
9:15 am 09:15 Cloudy with Mist and Fog 39 4 37 2.8 92 92 N 12 19 29.83 1010 4 6 N/A
9:35 am 09:35 Cloudy with Light Rain 39 4 37 2.9 93 93 N 10 17 29.83 1010 5 8 N/A
9:55 am 09:55 Cloudy with Drizzle 40 4.7 38 3.5 92 92 NNE 13 20 29.80 1009 7 11 N/A
10:15 am 10:15 Cloudy with Drizzle 41 4.8 38 3.1 89 89 NNE 10 17 29.80 1009 7 11 N/A
10:35 am 10:35 Cloudy with Light Rain 40 4.5 37 2.9 89 89 N 16 26 29.80 1009 3 5 0.01 0.25
10:55 am 10:55 Cloudy with Light Rain 39 4.1 37 2.6 90 90 N 16 26 29.83 1010 7 11 0.01 0.25
11:15 am 11:15 Cloudy 40 4.2 37 2.6 89 89 N 15 24 29.83 1010 10 16 N/A
11:35 am 11:35 Cloudy 40 4.2 37 2.5 89 89 N 16 26 29.83 1010 10 16 N/A
11:55 am 11:55 Cloudy 39 4.1 36 2.1 87 87 N 15 24 29.83 1010 10 16 N/A
12:15 pm 12:15 Cloudy with Drizzle 40 4.2 36 2.3 88 88 N 14 22 29.85 1011 10 16 N/A
12:35 pm 12:35 Cloudy with Light Rain 40 4.3 36 2.4 88 88 N 13 20 29.85 1011 10 16 N/A
12:55 pm 12:55 Cloudy with Light Rain 40 4.5 37 2.6 88 88 N 12 19 29.85 1011 10 16 N/A
1:15 pm 13:15 Cloudy with Light Rain 40 4.7 37 2.8 88 88 N 14 22 29.85 1011 10 16 N/A
1:35 pm 13:35 Cloudy with Light Rain 41 5 37 3 87 87 N 15 24 29.83 1010 10 16 0.01 0.25
1:55 pm 13:55 Cloudy with Light Rain 41 5 37 3 87 87 N 16 26 29.83 1010 10 16 0.01 0.25
2:15 pm 14:15 Cloudy 42 5.5 38 3.2 85 85 N 16 26 29.83 1010 10 16 N/A
2:35 pm 14:35 Cloudy with Light Rain 42 5.5 38 3.3 86 86 N 17 28 29.83 1010 10 16 N/A
2:55 pm 14:55 Cloudy 42 5.5 38 3.4 87 87 N 17 28 29.83 1010 10 16 N/A
3:15 pm 15:15 Cloudy 42 5.7 38 3.4 85 85 N 18 30 29.85 1011 10 16 N/A
3:35 pm 15:35 Cloudy 42 5.4 38 3.2 86 86 N 16 26 29.85 1011 10 16 N/A
3:55 pm 15:55 Cloudy with Light Rain 42 5.3 37 3 85 85 N 17 28 29.85 1011 10 16 N/A
4:15 pm 16:15 Cloudy with Drizzle 42 5.3 38 3.1 86 86 N 13 20 29.85 1011 10 16 N/A
4:35 pm 16:35 Cloudy with Rain 42 5.5 38 3.2 85 85 N 16 26 29.85 1011 10 16 N/A
4:55 pm 16:55 Cloudy with Light Rain 42 5.5 38 3.3 86 86 N 17 28 29.85 1011 10 16 0.01 0.25
5:15 pm 17:15 Cloudy with Light Rain 42 5.5 38 3.3 86 86 N 13 20 29.85 1011 10 16 N/A
5:35 pm 17:35 Cloudy with Rain 41 5.1 37 2.9 86 86 N 16 26 29.91 1013 10 16 0.01 0.25
5:55 pm 17:55 Cloudy with Light Rain 41 5 37 2.8 86 86 N 14 22 29.91 1013 10 16 0.01 0.25
6:15 pm 18:15 Cloudy with Drizzle 41 4.9 37 2.6 85 85 N 17 28 29.91 1013 10 16 N/A
6:35 pm 18:35 Cloudy with Drizzle 41 5 37 3 87 87 N 14 22 29.91 1013 10 16 N/A
7:15 pm 19:15 Cloudy 40 4.3 36 2.2 86 86 N 16 26 29.94 1014 10 16 N/A
7:35 pm 19:35 Cloudy with Drizzle 39 4 36 2.1 88 88 N 15 24 29.94 1014 10 16 N/A
7:55 pm 19:55 Cloudy with Drizzle 39 4 36 2.3 89 89 N 14 22 29.94 1014 10 16 0.01 0.25
8:15 pm 20:15 Cloudy with Drizzle 39 4 36 2.2 88 88 N 15 24 29.94 1014 10 16 N/A
8:35 pm 20:35 Cloudy 39 3.7 36 2.1 89 89 N 14 22 29.94 1014 10 16 N/A
8:55 pm 20:55 Cloudy 38 3.5 36 2 90 90 NNW 14 22 29.97 1015 10 16 N/A
9:15 pm 21:15 Cloudy 38 3.5 35 1.8 89 89 NNW 15 24 29.97 1015 10 16 N/A
9:35 pm 21:35 Cloudy 38 3.5 36 2.1 91 91 NNW 12 19 29.97 1015 10 16 N/A
9:55 pm 21:55 Cloudy with Drizzle 39 3.8 36 2.4 91 91 NNW 13 20 29.97 1015 10 16 N/A
10:15 pm 22:15 Cloudy with Light Rain 39 4 37 2.6 91 91 NNW 15 24 29.97 1015 7 11 N/A
10:35 pm 22:35 Cloudy with Drizzle 39 4 37 2.7 91 91 NNW 13 20 30.00 1016 10 16 N/A
10:55 pm 22:55 Cloudy with Drizzle 40 4.3 37 3 91 91 NNW 13 20 30.00 1016 7 11 N/A
11:15 pm 23:15 Cloudy with Drizzle 40 4.5 38 3.2 91 91 NNW 13 20 30.00 1016 4 6 N/A
11:35 pm 23:35 Cloudy with Light Rain 40 4.7 38 3.6 93 93 NNW 13 20 30.00 1016 5 8 N/A
11:55 pm 23:55 Cloudy with Light Rain 42 5.5 40 4.5 93 93 N 17 28 30.00 1016 7 11 N/A

Powered by AerisWeather